カタログに戻る

STARLINK-31255

運用中通信VLEO
NORAD 58893·PAYLOAD·🇺🇸 United States

打ち上げ Jan 29, 2024 から Vandenberg Space Force Base

Loading…

次のパス (今後24時間)

TLE

最新Source: CelesTrak SupGP

元期: Sep 15, 2026, 03:26 UTC

1 58893C 24020T   26258.14354167  .00012450  00000+0  36788-3 0  2589
2 58893  53.1562 158.5102 0001331  83.0602 240.2990 15.34380416    18

AllMySatでSTARLINK-31255をリアルタイム追跡

Download on the App Store